EUTELSAT 3B

Last updated on Sun Apr 12 2026 00:02:53 GMT+0000 (Coordinated Universal Time)

1 39773U 14030A 26101.37866977 .00000021 00000+0 00000+0 0 9991 2 39773 0.0654 11.2848 0001546 83.8195 243.8816 1.00271959 43395
UTC large
Height (km)
Speed (km/s)
/
Latitude / Longitude
Inclination (degrees)
Orbital Period (minutes)
Azimuth
Elevation
Range (km)
Doppler Factor

Next 0 passes for location: London (51.5072 / 0.1276)

Sorry there are no passes over London.
EUTELSAT 3B